Year,Month,Day,Hour,Minute,Value (Times are PST for temperature in C)
2012,04,12,00,00,7.20
2012,04,12,00,01,7.20
2012,04,12,00,02,7.20
2012,04,12,00,03,7.20
2012,04,12,00,04,7.20
2012,04,12,00,05,7.20
2012,04,12,00,06,7.20
2012,04,12,00,07,7.20
2012,04,12,00,08,7.20
2012,04,12,00,09,7.10
2012,04,12,00,10,7.10
2012,04,12,00,11,7.10
2012,04,12,00,12,7.10
2012,04,12,00,13,7.10
2012,04,12,00,14,7.10
2012,04,12,00,15,7.10
2012,04,12,00,16,7.10
2012,04,12,00,17,7.10
2012,04,12,00,18,7.10
2012,04,12,00,19,7.10
2012,04,12,00,20,7.10
2012,04,12,00,21,7.10
2012,04,12,00,22,7.00
2012,04,12,00,23,7.00
2012,04,12,00,24,7.00
2012,04,12,00,25,7.00
2012,04,12,00,26,7.00
2012,04,12,00,27,7.00
2012,04,12,00,28,7.00
2012,04,12,00,29,7.00
2012,04,12,00,30,7.00
2012,04,12,00,31,6.90
2012,04,12,00,32,6.90
2012,04,12,00,33,6.90
2012,04,12,00,34,6.90
2012,04,12,00,35,6.90
2012,04,12,00,36,6.90
2012,04,12,00,37,6.90
2012,04,12,00,38,6.90
2012,04,12,00,39,6.90
2012,04,12,00,40,6.90
2012,04,12,00,41,6.90
2012,04,12,00,42,6.80
2012,04,12,00,43,6.90
2012,04,12,00,44,6.80
2012,04,12,00,45,6.80
2012,04,12,00,46,6.80
2012,04,12,00,47,6.80
2012,04,12,00,48,6.80
2012,04,12,00,49,6.80
2012,04,12,00,50,6.70
2012,04,12,00,51,6.70
2012,04,12,00,52,6.70
2012,04,12,00,53,6.80
2012,04,12,00,54,6.80
2012,04,12,00,55,6.80
2012,04,12,00,56,6.80
2012,04,12,00,57,6.70
2012,04,12,00,58,6.70
2012,04,12,00,59,6.70
2012,04,12,01,00,6.70
2012,04,12,01,01,6.70
2012,04,12,01,02,6.70
2012,04,12,01,03,6.70
2012,04,12,01,04,6.70
2012,04,12,01,05,6.70
2012,04,12,01,06,6.70
2012,04,12,01,07,6.70
2012,04,12,01,08,6.70
2012,04,12,01,09,6.70
2012,04,12,01,10,6.70
2012,04,12,01,11,6.70
2012,04,12,01,12,6.60
2012,04,12,01,13,6.60
2012,04,12,01,14,6.60
2012,04,12,01,15,6.60
2012,04,12,01,16,6.60
2012,04,12,01,17,6.60
2012,04,12,01,18,6.60
2012,04,12,01,19,6.60
2012,04,12,01,20,6.60
2012,04,12,01,21,6.60
2012,04,12,01,22,6.60
2012,04,12,01,23,6.60
2012,04,12,01,24,6.60
2012,04,12,01,25,6.60
2012,04,12,01,26,6.50
2012,04,12,01,27,6.50
2012,04,12,01,28,6.50
2012,04,12,01,29,6.40
2012,04,12,01,30,6.40
2012,04,12,01,31,6.40
2012,04,12,01,32,6.40
2012,04,12,01,33,6.40
2012,04,12,01,34,6.40
2012,04,12,01,35,6.40
2012,04,12,01,36,6.40
2012,04,12,01,37,6.40
2012,04,12,01,38,6.40
2012,04,12,01,39,6.40
2012,04,12,01,40,6.40
2012,04,12,01,41,6.40
2012,04,12,01,42,6.40
2012,04,12,01,43,6.40
2012,04,12,01,44,6.40
2012,04,12,01,45,6.40
2012,04,12,01,46,6.30
2012,04,12,01,47,6.30
2012,04,12,01,48,6.30
2012,04,12,01,49,6.30
2012,04,12,01,50,6.30
2012,04,12,01,51,6.30
2012,04,12,01,52,6.30
2012,04,12,01,53,6.30
2012,04,12,01,54,6.30
2012,04,12,01,55,6.30
2012,04,12,01,56,6.30
2012,04,12,01,57,6.30
2012,04,12,01,58,6.30
2012,04,12,01,59,6.30
2012,04,12,02,00,6.30
2012,04,12,02,01,6.30
2012,04,12,02,02,6.20
2012,04,12,02,03,6.20
2012,04,12,02,04,6.20
2012,04,12,02,05,6.20
2012,04,12,02,06,6.20
2012,04,12,02,07,6.20
2012,04,12,02,08,6.20
2012,04,12,02,09,6.20
2012,04,12,02,10,6.20
2012,04,12,02,11,6.10
2012,04,12,02,12,6.10
2012,04,12,02,13,6.10
2012,04,12,02,14,6.10
2012,04,12,02,15,6.10
2012,04,12,02,16,6.10
2012,04,12,02,17,6.10
2012,04,12,02,18,6.10
2012,04,12,02,19,6.10
2012,04,12,02,20,6.10
2012,04,12,02,21,6.00
2012,04,12,02,22,6.00
2012,04,12,02,23,6.00
2012,04,12,02,24,5.90
2012,04,12,02,25,5.90
2012,04,12,02,26,5.90
2012,04,12,02,27,5.90
2012,04,12,02,28,5.90
2012,04,12,02,29,5.90
2012,04,12,02,30,5.90
2012,04,12,02,31,5.90
2012,04,12,02,32,5.90
2012,04,12,02,33,5.80
2012,04,12,02,34,5.80
2012,04,12,02,35,5.80
2012,04,12,02,36,5.80
2012,04,12,02,37,5.80
2012,04,12,02,38,5.80
2012,04,12,02,39,5.80
2012,04,12,02,40,5.80
2012,04,12,02,41,5.80
2012,04,12,02,42,5.80
2012,04,12,02,43,5.80
2012,04,12,02,44,5.80
2012,04,12,02,45,5.70
2012,04,12,02,46,5.70
2012,04,12,02,47,5.70
2012,04,12,02,48,5.70
2012,04,12,02,49,5.70
2012,04,12,02,50,5.70
2012,04,12,02,51,5.70
2012,04,12,02,52,5.70
2012,04,12,02,53,5.70
2012,04,12,02,54,5.70
2012,04,12,02,55,5.70
2012,04,12,02,56,5.70
2012,04,12,02,57,5.70
2012,04,12,02,58,5.70
2012,04,12,02,59,5.60
2012,04,12,03,00,5.60
2012,04,12,03,01,5.60
2012,04,12,03,02,5.60
2012,04,12,03,03,5.60
2012,04,12,03,04,5.60
2012,04,12,03,05,5.60
2012,04,12,03,06,5.60
2012,04,12,03,07,5.60
2012,04,12,03,08,5.60
2012,04,12,03,09,5.60
2012,04,12,03,10,5.60
2012,04,12,03,11,5.60
2012,04,12,03,12,5.50
2012,04,12,03,13,5.50
2012,04,12,03,14,5.50
2012,04,12,03,15,5.40
2012,04,12,03,16,5.40
2012,04,12,03,17,5.40
2012,04,12,03,18,5.40
2012,04,12,03,19,5.40
2012,04,12,03,20,5.40
2012,04,12,03,21,5.30
2012,04,12,03,22,5.30
2012,04,12,03,23,5.30
2012,04,12,03,24,5.30
2012,04,12,03,25,5.30
2012,04,12,03,26,5.30
2012,04,12,03,27,5.30
2012,04,12,03,28,5.30
2012,04,12,03,29,5.30
2012,04,12,03,30,5.20
2012,04,12,03,31,5.20
2012,04,12,03,32,5.20
2012,04,12,03,33,5.20
2012,04,12,03,34,5.20
2012,04,12,03,35,5.20
2012,04,12,03,36,5.10
2012,04,12,03,37,5.10
2012,04,12,03,38,5.10
2012,04,12,03,39,5.10
2012,04,12,03,40,5.10
2012,04,12,03,41,5.10
2012,04,12,03,42,5.10
2012,04,12,03,43,5.10
2012,04,12,03,44,5.10
2012,04,12,03,45,5.10
2012,04,12,03,46,5.10
2012,04,12,03,47,5.00
2012,04,12,03,48,5.00
2012,04,12,03,49,4.90
2012,04,12,03,50,4.90
2012,04,12,03,51,4.90
2012,04,12,03,52,4.80
2012,04,12,03,53,4.80
2012,04,12,03,54,4.80
2012,04,12,03,55,4.80
2012,04,12,03,56,4.80
2012,04,12,03,57,4.80
2012,04,12,03,58,4.80
2012,04,12,03,59,4.80
2012,04,12,04,00,4.80
2012,04,12,04,01,4.80
2012,04,12,04,02,4.80
2012,04,12,04,03,4.80
2012,04,12,04,04,4.80
2012,04,12,04,05,4.80
2012,04,12,04,06,4.70
2012,04,12,04,07,4.70
2012,04,12,04,08,4.70
2012,04,12,04,09,4.70
2012,04,12,04,10,4.70
2012,04,12,04,11,4.70
2012,04,12,04,12,4.70
2012,04,12,04,13,4.70
2012,04,12,04,14,4.60
2012,04,12,04,15,4.60
2012,04,12,04,16,4.60
2012,04,12,04,17,4.70
2012,04,12,04,18,4.60
2012,04,12,04,19,4.70
2012,04,12,04,20,4.60
2012,04,12,04,21,4.60
2012,04,12,04,22,4.60
2012,04,12,04,23,4.60
2012,04,12,04,24,4.60
2012,04,12,04,25,4.60
2012,04,12,04,26,4.50
2012,04,12,04,27,4.50
2012,04,12,04,28,4.50
2012,04,12,04,29,4.40
2012,04,12,04,30,4.40
2012,04,12,04,31,4.40
2012,04,12,04,32,4.40
2012,04,12,04,33,4.40
2012,04,12,04,34,4.30
2012,04,12,04,35,4.30
2012,04,12,04,36,4.30
2012,04,12,04,37,4.30
2012,04,12,04,38,4.30
2012,04,12,04,39,4.30
2012,04,12,04,40,4.30
2012,04,12,04,41,4.30
2012,04,12,04,42,4.30
2012,04,12,04,43,4.30
2012,04,12,04,44,4.30
2012,04,12,04,45,4.30
2012,04,12,04,46,4.20
2012,04,12,04,47,4.20
2012,04,12,04,48,4.20
2012,04,12,04,49,4.20
2012,04,12,04,50,4.20
2012,04,12,04,51,4.20
2012,04,12,04,52,4.20
2012,04,12,04,53,4.20
2012,04,12,04,54,4.10
2012,04,12,04,55,4.10
2012,04,12,04,56,4.10
2012,04,12,04,57,4.10
2012,04,12,04,58,4.10
2012,04,12,04,59,4.10
2012,04,12,05,00,4.00
2012,04,12,05,01,4.00
2012,04,12,05,02,3.90
2012,04,12,05,03,3.80
2012,04,12,05,04,3.70
2012,04,12,05,05,3.70
2012,04,12,05,06,3.60
2012,04,12,05,07,3.60
2012,04,12,05,08,3.60
2012,04,12,05,09,3.60
2012,04,12,05,10,3.60
2012,04,12,05,11,3.60
2012,04,12,05,12,3.60
2012,04,12,05,13,3.60
2012,04,12,05,14,3.60
2012,04,12,05,15,3.60
2012,04,12,05,16,3.60
2012,04,12,05,17,3.60
2012,04,12,05,18,3.60
2012,04,12,05,19,3.60
2012,04,12,05,20,3.60
2012,04,12,05,21,3.60
2012,04,12,05,22,3.60
2012,04,12,05,23,3.70
2012,04,12,05,24,3.70
2012,04,12,05,25,3.70
2012,04,12,05,26,3.80
2012,04,12,05,27,3.80
2012,04,12,05,28,3.80
2012,04,12,05,29,3.80
2012,04,12,05,30,3.80
2012,04,12,05,31,3.80
2012,04,12,05,32,3.70
2012,04,12,05,33,3.70
2012,04,12,05,34,3.70
2012,04,12,05,35,3.70
2012,04,12,05,36,3.70
2012,04,12,05,37,3.70
2012,04,12,05,38,3.70
2012,04,12,05,39,3.70
2012,04,12,05,40,3.70
2012,04,12,05,41,3.70
2012,04,12,05,42,3.70
2012,04,12,05,43,3.60
2012,04,12,05,44,3.60
2012,04,12,05,45,3.60
2012,04,12,05,46,3.60
2012,04,12,05,47,3.60
2012,04,12,05,48,3.60
2012,04,12,05,49,3.60
2012,04,12,05,50,3.60
2012,04,12,05,51,3.50
2012,04,12,05,52,3.50
2012,04,12,05,53,3.50
2012,04,12,05,54,3.50
2012,04,12,05,55,3.50
2012,04,12,05,56,3.50
2012,04,12,05,57,3.50
2012,04,12,05,58,3.50
2012,04,12,05,59,3.50
2012,04,12,06,00,3.40
2012,04,12,06,01,3.40
2012,04,12,06,02,3.40
2012,04,12,06,03,3.40
2012,04,12,06,04,3.40
2012,04,12,06,05,3.30
2012,04,12,06,06,3.30
2012,04,12,06,07,3.30
2012,04,12,06,08,3.30
2012,04,12,06,09,3.30
2012,04,12,06,10,3.20
2012,04,12,06,11,3.20
2012,04,12,06,12,3.20
2012,04,12,06,13,3.20
2012,04,12,06,14,3.20
2012,04,12,06,15,3.20
2012,04,12,06,16,3.20
2012,04,12,06,17,3.10
2012,04,12,06,18,3.10
2012,04,12,06,19,3.10
2012,04,12,06,20,3.10
2012,04,12,06,21,3.10
2012,04,12,06,22,3.10
2012,04,12,06,23,3.10
2012,04,12,06,24,3.10
2012,04,12,06,25,3.10
2012,04,12,06,26,3.20
2012,04,12,06,27,3.20
2012,04,12,06,28,3.20
2012,04,12,06,29,3.20
2012,04,12,06,30,3.20
2012,04,12,06,31,3.20
2012,04,12,06,32,3.20
2012,04,12,06,33,3.20
2012,04,12,06,34,3.20
2012,04,12,06,35,3.20
2012,04,12,06,36,3.10
2012,04,12,06,37,3.10
2012,04,12,06,38,3.10
2012,04,12,06,39,3.10
2012,04,12,06,40,3.10
2012,04,12,06,41,3.10
2012,04,12,06,42,3.10
2012,04,12,06,43,3.10
2012,04,12,06,44,3.10
2012,04,12,06,45,3.10
2012,04,12,06,46,3.10
2012,04,12,06,47,3.10
2012,04,12,06,48,3.10
2012,04,12,06,49,3.20
2012,04,12,06,50,3.20
2012,04,12,06,51,3.20
2012,04,12,06,52,3.20
2012,04,12,06,53,3.20
2012,04,12,06,54,3.20
2012,04,12,06,55,3.20
2012,04,12,06,56,3.20
2012,04,12,06,57,3.20
2012,04,12,06,58,3.20
2012,04,12,06,59,3.20
2012,04,12,07,00,3.20
2012,04,12,07,01,3.20
2012,04,12,07,02,3.10
2012,04,12,07,03,3.20
2012,04,12,07,04,3.20
2012,04,12,07,05,3.10
2012,04,12,07,06,3.10
2012,04,12,07,07,3.10
2012,04,12,07,08,3.10
2012,04,12,07,09,3.10
2012,04,12,07,10,3.10
2012,04,12,07,11,3.10
2012,04,12,07,12,3.10
2012,04,12,07,13,3.10
2012,04,12,07,14,3.20
2012,04,12,07,15,3.20
2012,04,12,07,16,3.20
2012,04,12,07,17,3.20
2012,04,12,07,18,3.20
2012,04,12,07,19,3.20
2012,04,12,07,20,3.20
2012,04,12,07,21,3.20
2012,04,12,07,22,3.20
2012,04,12,07,23,3.20
2012,04,12,07,24,3.30
2012,04,12,07,25,3.30
2012,04,12,07,26,3.30
2012,04,12,07,27,3.30
2012,04,12,07,28,3.30
2012,04,12,07,29,3.30
2012,04,12,07,30,3.40
2012,04,12,07,31,3.40
2012,04,12,07,32,3.40
2012,04,12,07,33,3.40
2012,04,12,07,34,3.50
2012,04,12,07,35,3.50
2012,04,12,07,36,3.50
2012,04,12,07,37,3.50
2012,04,12,07,38,3.60
2012,04,12,07,39,3.60
2012,04,12,07,40,3.60
2012,04,12,07,41,3.60
2012,04,12,07,42,3.70
2012,04,12,07,43,3.70
2012,04,12,07,44,3.70
2012,04,12,07,45,3.70
2012,04,12,07,46,3.80
2012,04,12,07,47,3.80
2012,04,12,07,48,3.90
2012,04,12,07,49,3.90
2012,04,12,07,50,4.00
2012,04,12,07,51,4.00
2012,04,12,07,52,4.00
2012,04,12,07,53,4.10
2012,04,12,07,54,4.10
2012,04,12,07,55,4.10
2012,04,12,07,56,4.20
2012,04,12,07,57,4.20
2012,04,12,07,58,4.20
2012,04,12,07,59,4.20
2012,04,12,08,00,4.20
2012,04,12,08,01,4.20
2012,04,12,08,02,4.30
2012,04,12,08,03,4.30
2012,04,12,08,04,4.30
2012,04,12,08,05,4.30
2012,04,12,08,06,4.30
2012,04,12,08,07,4.40
2012,04,12,08,08,4.40
2012,04,12,08,09,4.30
2012,04,12,08,10,4.30
2012,04,12,08,11,4.30
2012,04,12,08,12,4.30
2012,04,12,08,13,4.40
2012,04,12,08,14,4.40
2012,04,12,08,15,4.40
2012,04,12,08,16,4.40
2012,04,12,08,17,4.50
2012,04,12,08,18,4.50
2012,04,12,08,19,4.60
2012,04,12,08,20,4.70
2012,04,12,08,21,4.80
2012,04,12,08,22,4.80
2012,04,12,08,23,4.90
2012,04,12,08,24,4.90
2012,04,12,08,25,5.00
2012,04,12,08,26,5.10
2012,04,12,08,27,5.10
2012,04,12,08,28,5.20
2012,04,12,08,29,5.20
2012,04,12,08,30,5.30
2012,04,12,08,31,5.30
2012,04,12,08,32,5.30
2012,04,12,08,33,5.40
2012,04,12,08,34,5.40
2012,04,12,08,35,5.50
2012,04,12,08,36,5.60
2012,04,12,08,37,5.60
2012,04,12,08,38,5.70
2012,04,12,08,39,5.80
2012,04,12,08,40,5.80
2012,04,12,08,41,5.90
2012,04,12,08,42,6.00
2012,04,12,08,43,6.10
2012,04,12,08,44,6.20
2012,04,12,08,45,6.30
2012,04,12,08,46,6.40
2012,04,12,08,47,6.40
2012,04,12,08,48,6.50
2012,04,12,08,49,6.50
2012,04,12,08,50,6.60
2012,04,12,08,51,6.60
2012,04,12,08,52,6.70
2012,04,12,08,53,6.70
2012,04,12,08,54,6.70
2012,04,12,08,55,6.70
2012,04,12,08,56,6.80
2012,04,12,08,57,6.80
2012,04,12,08,58,6.80
2012,04,12,08,59,6.90
2012,04,12,09,00,7.00
2012,04,12,09,01,7.10
2012,04,12,09,02,7.10
2012,04,12,09,03,7.20
2012,04,12,09,04,7.20
2012,04,12,09,05,7.20
2012,04,12,09,06,7.20
2012,04,12,09,07,7.30
2012,04,12,09,08,7.30
2012,04,12,09,09,7.30
2012,04,12,09,10,7.40
2012,04,12,09,11,7.40
2012,04,12,09,12,7.40
2012,04,12,09,13,7.50
2012,04,12,09,14,7.60
2012,04,12,09,15,7.60
2012,04,12,09,16,7.70
2012,04,12,09,17,7.70
2012,04,12,09,18,7.70
2012,04,12,09,19,7.70
2012,04,12,09,20,7.70
2012,04,12,09,21,7.70
2012,04,12,09,22,7.80
2012,04,12,09,23,7.80
2012,04,12,09,24,7.90
2012,04,12,09,25,8.00
2012,04,12,09,26,8.00
2012,04,12,09,27,8.00
2012,04,12,09,28,8.10
2012,04,12,09,29,8.10
2012,04,12,09,30,8.10
2012,04,12,09,31,8.10
2012,04,12,09,32,8.10
2012,04,12,09,33,8.10
2012,04,12,09,34,8.10
2012,04,12,09,35,8.10
2012,04,12,09,36,8.10
2012,04,12,09,37,8.10
2012,04,12,09,38,8.10
2012,04,12,09,39,8.10
2012,04,12,09,40,8.20
2012,04,12,09,41,8.20
2012,04,12,09,42,8.20
2012,04,12,09,43,8.30
2012,04,12,09,44,8.30
2012,04,12,09,45,8.40
2012,04,12,09,46,8.40
2012,04,12,09,47,8.50
2012,04,12,09,48,8.50
2012,04,12,09,49,8.60
2012,04,12,09,50,8.60
2012,04,12,09,51,8.60
2012,04,12,09,52,8.70
2012,04,12,09,53,8.70
2012,04,12,09,54,8.70
2012,04,12,09,55,8.70
2012,04,12,09,56,8.70
2012,04,12,09,57,8.60
2012,04,12,09,58,8.60
2012,04,12,09,59,8.60
2012,04,12,10,00,8.60
2012,04,12,10,01,8.60
2012,04,12,10,02,8.50
2012,04,12,10,03,8.40
2012,04,12,10,04,8.40
2012,04,12,10,05,8.40
2012,04,12,10,06,8.40
2012,04,12,10,07,8.40
2012,04,12,10,08,8.40
2012,04,12,10,09,8.30
2012,04,12,10,10,8.30
2012,04,12,10,11,8.30
2012,04,12,10,12,8.30
2012,04,12,10,13,8.30
2012,04,12,10,14,8.30
2012,04,12,10,15,8.30
2012,04,12,10,16,8.30
2012,04,12,10,17,8.30
2012,04,12,10,18,8.30
2012,04,12,10,19,8.30
2012,04,12,10,20,8.30
2012,04,12,10,21,8.30
2012,04,12,10,22,8.40
2012,04,12,10,23,8.40
2012,04,12,10,24,8.50
2012,04,12,10,25,8.50
2012,04,12,10,26,8.60
2012,04,12,10,27,8.60
2012,04,12,10,28,8.60
2012,04,12,10,29,8.70
2012,04,12,10,30,8.70
2012,04,12,10,31,8.80
2012,04,12,10,32,8.80
2012,04,12,10,33,8.90
2012,04,12,10,34,8.90
2012,04,12,10,35,8.90
2012,04,12,10,36,9.00
2012,04,12,10,37,9.10
2012,04,12,10,38,9.10
2012,04,12,10,39,9.20
2012,04,12,10,40,9.20
2012,04,12,10,41,9.30
2012,04,12,10,42,9.30
2012,04,12,10,43,9.40
2012,04,12,10,44,9.40
2012,04,12,10,45,9.50
2012,04,12,10,46,9.50
2012,04,12,10,47,9.60
2012,04,12,10,48,9.60
2012,04,12,10,49,9.60
2012,04,12,10,50,9.60
2012,04,12,10,51,9.60
2012,04,12,10,52,9.60
2012,04,12,10,53,9.60
2012,04,12,10,54,9.60
2012,04,12,10,55,9.60
2012,04,12,10,56,9.60
2012,04,12,10,57,9.60
2012,04,12,10,58,9.60
2012,04,12,10,59,9.60
2012,04,12,11,00,9.70
2012,04,12,11,01,9.70
2012,04,12,11,02,9.70
2012,04,12,11,03,9.80
2012,04,12,11,04,9.90
2012,04,12,11,05,9.90
2012,04,12,11,06,9.80
2012,04,12,11,07,9.80
2012,04,12,11,08,9.80
2012,04,12,11,09,9.80
2012,04,12,11,10,9.80
2012,04,12,11,11,9.80
2012,04,12,11,12,9.90
2012,04,12,11,13,9.90
2012,04,12,11,14,9.90
2012,04,12,11,15,10.00
2012,04,12,11,16,10.10
2012,04,12,11,17,10.20
2012,04,12,11,18,10.30
2012,04,12,11,19,10.40
2012,04,12,11,20,10.50
2012,04,12,11,21,10.50
2012,04,12,11,22,10.70
2012,04,12,11,23,10.80
2012,04,12,11,24,11.00
2012,04,12,11,25,11.10
2012,04,12,11,26,11.20
2012,04,12,11,27,11.20
2012,04,12,11,28,11.20
2012,04,12,11,29,11.10
2012,04,12,11,30,11.00
2012,04,12,11,31,10.80
2012,04,12,11,32,10.70
2012,04,12,11,33,10.70
2012,04,12,11,34,10.70
2012,04,12,11,35,10.80
2012,04,12,11,36,10.70
2012,04,12,11,37,10.70
2012,04,12,11,38,10.70
2012,04,12,11,39,10.70
2012,04,12,11,40,10.70
2012,04,12,11,41,10.60
2012,04,12,11,42,10.60
2012,04,12,11,43,10.60
2012,04,12,11,44,10.60
2012,04,12,11,45,10.50
2012,04,12,11,46,10.30
2012,04,12,11,47,10.30
2012,04,12,11,48,10.20
2012,04,12,11,49,10.20
2012,04,12,11,50,10.20
2012,04,12,11,51,10.20
2012,04,12,11,52,10.20
2012,04,12,11,53,10.20
2012,04,12,11,54,10.10
2012,04,12,11,55,10.00
2012,04,12,11,56,10.00
2012,04,12,11,57,9.90
2012,04,12,11,58,9.90
2012,04,12,11,59,10.00
2012,04,12,12,00,10.00
2012,04,12,12,01,10.00
2012,04,12,12,02,10.10
2012,04,12,12,03,10.20
2012,04,12,12,04,10.20
2012,04,12,12,05,10.10
2012,04,12,12,06,10.10
2012,04,12,12,07,10.00
2012,04,12,12,08,9.90
2012,04,12,12,09,9.90
2012,04,12,12,10,10.00
2012,04,12,12,11,10.10
2012,04,12,12,12,10.10
2012,04,12,12,13,10.20
2012,04,12,12,14,10.20
2012,04,12,12,15,10.10
2012,04,12,12,16,10.10
2012,04,12,12,17,10.10
2012,04,12,12,18,10.10
2012,04,12,12,19,10.20
2012,04,12,12,20,10.20
2012,04,12,12,21,10.20
2012,04,12,12,22,10.10
2012,04,12,12,23,10.20
2012,04,12,12,24,10.20
2012,04,12,12,25,10.30
2012,04,12,12,26,10.40
2012,04,12,12,27,10.40
2012,04,12,12,28,10.50
2012,04,12,12,29,10.60
2012,04,12,12,30,10.60
2012,04,12,12,31,10.70
2012,04,12,12,32,10.70
2012,04,12,12,33,10.80
2012,04,12,12,34,10.80
2012,04,12,12,35,10.90
2012,04,12,12,36,10.90
2012,04,12,12,37,10.90
2012,04,12,12,38,10.90
2012,04,12,12,39,10.80
2012,04,12,12,40,10.90
2012,04,12,12,41,10.90
2012,04,12,12,42,10.90
2012,04,12,12,43,11.00
2012,04,12,12,44,11.00
2012,04,12,12,45,11.20
2012,04,12,12,46,11.30
2012,04,12,12,47,11.50
2012,04,12,12,48,11.60
2012,04,12,12,49,11.70
2012,04,12,12,50,11.80
2012,04,12,12,51,12.00
2012,04,12,12,52,12.10
2012,04,12,12,53,12.30
2012,04,12,12,54,12.40
2012,04,12,12,55,12.60
2012,04,12,12,56,12.70
2012,04,12,12,57,12.80
2012,04,12,12,58,12.80
2012,04,12,12,59,12.80
2012,04,12,13,00,12.70
2012,04,12,13,01,12.60
2012,04,12,13,02,12.50
2012,04,12,13,03,12.40
2012,04,12,13,04,12.40
2012,04,12,13,05,12.40
2012,04,12,13,06,12.40
2012,04,12,13,07,12.50
2012,04,12,13,08,12.60
2012,04,12,13,09,12.60
2012,04,12,13,10,12.60
2012,04,12,13,11,12.60
2012,04,12,13,12,12.50
2012,04,12,13,13,12.40
2012,04,12,13,14,12.30
2012,04,12,13,15,12.30
2012,04,12,13,16,12.40
2012,04,12,13,17,12.40
2012,04,12,13,18,12.50
2012,04,12,13,19,12.50
2012,04,12,13,20,12.40
2012,04,12,13,21,12.30
2012,04,12,13,22,12.00
2012,04,12,13,23,11.90
2012,04,12,13,24,11.60
2012,04,12,13,25,11.50
2012,04,12,13,26,11.50
2012,04,12,13,27,11.40
2012,04,12,13,28,11.20
2012,04,12,13,29,11.20
2012,04,12,13,30,11.30
2012,04,12,13,31,11.30
2012,04,12,13,32,11.40
2012,04,12,13,33,11.40
2012,04,12,13,34,11.30
2012,04,12,13,35,11.40
2012,04,12,13,36,11.50
2012,04,12,13,37,11.60
2012,04,12,13,38,11.60
2012,04,12,13,39,11.50
2012,04,12,13,40,11.40
2012,04,12,13,41,11.40
2012,04,12,13,42,11.40
2012,04,12,13,43,11.40
2012,04,12,13,44,11.20
2012,04,12,13,45,11.20
2012,04,12,13,46,11.20
2012,04,12,13,47,11.20
2012,04,12,13,48,11.20
2012,04,12,13,49,11.30
2012,04,12,13,50,11.30
2012,04,12,13,51,11.40
2012,04,12,13,52,11.50
2012,04,12,13,53,11.60
2012,04,12,13,54,11.60
2012,04,12,13,55,11.60
2012,04,12,13,56,11.50
2012,04,12,13,57,11.40
2012,04,12,13,58,11.50
2012,04,12,13,59,11.60
2012,04,12,14,00,11.70
2012,04,12,14,01,11.80
2012,04,12,14,02,11.90
2012,04,12,14,03,11.90
2012,04,12,14,04,11.90
2012,04,12,14,05,11.90
2012,04,12,14,06,12.00
2012,04,12,14,07,12.00
2012,04,12,14,08,12.10
2012,04,12,14,09,12.10
2012,04,12,14,10,12.00
2012,04,12,14,11,12.10
2012,04,12,14,12,12.20
2012,04,12,14,13,12.20
2012,04,12,14,14,12.30
2012,04,12,14,15,12.30
2012,04,12,14,16,12.20
2012,04,12,14,17,12.10
2012,04,12,14,18,11.90
2012,04,12,14,19,11.90
2012,04,12,14,20,11.90
2012,04,12,14,21,11.80
2012,04,12,14,22,11.90
2012,04,12,14,23,11.90
2012,04,12,14,24,12.00
2012,04,12,14,25,12.20
2012,04,12,14,26,12.30
2012,04,12,14,27,12.30
2012,04,12,14,28,12.40
2012,04,12,14,29,12.20
2012,04,12,14,30,12.10
2012,04,12,14,31,12.00
2012,04,12,14,32,11.90
2012,04,12,14,33,11.90
2012,04,12,14,34,11.80
2012,04,12,14,35,11.80
2012,04,12,14,36,11.90
2012,04,12,14,37,12.00
2012,04,12,14,38,12.20
2012,04,12,14,39,12.20
2012,04,12,14,40,12.30
2012,04,12,14,41,12.20
2012,04,12,14,42,12.10
2012,04,12,14,43,11.90
2012,04,12,14,44,11.70
2012,04,12,14,45,11.40
2012,04,12,14,46,11.20
2012,04,12,14,47,11.10
2012,04,12,14,48,11.10
2012,04,12,14,49,11.00
2012,04,12,14,50,10.90
2012,04,12,14,51,10.80
2012,04,12,14,52,10.80
2012,04,12,14,53,10.80
2012,04,12,14,54,10.80
2012,04,12,14,55,10.80
2012,04,12,14,56,10.80
2012,04,12,14,57,10.80
2012,04,12,14,58,10.80
2012,04,12,14,59,10.80
2012,04,12,15,00,10.80
2012,04,12,15,01,10.90
2012,04,12,15,02,11.00
2012,04,12,15,03,11.00
2012,04,12,15,04,11.10
2012,04,12,15,05,11.20
2012,04,12,15,06,11.20
2012,04,12,15,07,11.30
2012,04,12,15,08,11.30
2012,04,12,15,09,11.40
2012,04,12,15,10,11.40
2012,04,12,15,11,11.50
2012,04,12,15,12,11.60
2012,04,12,15,13,11.60
2012,04,12,15,14,11.50
2012,04,12,15,15,11.30
2012,04,12,15,16,11.20
2012,04,12,15,17,11.00
2012,04,12,15,18,10.90
2012,04,12,15,19,10.80
2012,04,12,15,20,10.80
2012,04,12,15,21,10.60
2012,04,12,15,22,10.40
2012,04,12,15,23,10.30
2012,04,12,15,24,10.10
2012,04,12,15,25,9.90
2012,04,12,15,26,9.70
2012,04,12,15,27,9.60
2012,04,12,15,28,9.40
2012,04,12,15,29,9.30
2012,04,12,15,30,9.10
2012,04,12,15,31,9.00
2012,04,12,15,32,8.90
2012,04,12,15,33,8.80
2012,04,12,15,34,8.80
2012,04,12,15,35,8.70
2012,04,12,15,36,8.70
2012,04,12,15,37,8.70
2012,04,12,15,38,8.70
2012,04,12,15,39,8.60
2012,04,12,15,40,8.60
2012,04,12,15,41,8.60
2012,04,12,15,42,8.60
2012,04,12,15,43,8.50
2012,04,12,15,44,8.40
2012,04,12,15,45,8.20
2012,04,12,15,46,8.10
2012,04,12,15,47,7.90
2012,04,12,15,48,7.80
2012,04,12,15,49,7.60
2012,04,12,15,50,7.50
2012,04,12,15,51,7.40
2012,04,12,15,52,7.20
2012,04,12,15,53,7.20
2012,04,12,15,54,7.10
2012,04,12,15,55,6.90
2012,04,12,15,56,6.80
2012,04,12,15,57,6.80
2012,04,12,15,58,6.70
2012,04,12,15,59,6.70
2012,04,12,16,00,6.60
2012,04,12,16,01,6.60
2012,04,12,16,02,6.60
2012,04,12,16,03,6.50
2012,04,12,16,04,6.50
2012,04,12,16,05,6.40
2012,04,12,16,06,6.40
2012,04,12,16,07,6.30
2012,04,12,16,08,6.30
2012,04,12,16,09,6.20
2012,04,12,16,10,6.20
2012,04,12,16,11,6.20
2012,04,12,16,12,6.20
2012,04,12,16,13,6.20
2012,04,12,16,14,6.20
2012,04,12,16,15,6.20
2012,04,12,16,16,6.10
2012,04,12,16,17,6.10
2012,04,12,16,18,6.10
2012,04,12,16,19,6.10
2012,04,12,16,20,6.10
2012,04,12,16,21,6.10
2012,04,12,16,22,6.10
2012,04,12,16,23,6.10
2012,04,12,16,24,6.10
2012,04,12,16,25,6.10
2012,04,12,16,26,6.10
2012,04,12,16,27,6.10
2012,04,12,16,28,6.10
2012,04,12,16,29,6.10
2012,04,12,16,30,6.10
2012,04,12,16,31,6.10
2012,04,12,16,32,6.10
2012,04,12,16,33,6.10
2012,04,12,16,34,6.10
2012,04,12,16,35,6.10
2012,04,12,16,36,6.10
2012,04,12,16,37,6.10
2012,04,12,16,38,6.10
2012,04,12,16,39,6.10
2012,04,12,16,40,6.20
2012,04,12,16,41,6.20
2012,04,12,16,42,6.20
2012,04,12,16,43,6.20
2012,04,12,16,44,6.20
2012,04,12,16,45,6.20
2012,04,12,16,46,6.10
2012,04,12,16,47,6.10
2012,04,12,16,48,6.10
2012,04,12,16,49,6.00
2012,04,12,16,50,6.00
2012,04,12,16,51,6.00
2012,04,12,16,52,6.00
2012,04,12,16,53,6.00
2012,04,12,16,54,5.90
2012,04,12,16,55,5.90
2012,04,12,16,56,5.90
2012,04,12,16,57,5.90
2012,04,12,16,58,5.90
2012,04,12,16,59,5.90
2012,04,12,17,00,5.90
2012,04,12,17,01,5.90
2012,04,12,17,02,5.90
2012,04,12,17,03,5.90
2012,04,12,17,04,5.90
2012,04,12,17,05,5.90
2012,04,12,17,06,5.90
2012,04,12,17,07,5.90
2012,04,12,17,08,6.00
2012,04,12,17,09,6.00
2012,04,12,17,10,6.00
2012,04,12,17,11,6.10
2012,04,12,17,12,6.10
2012,04,12,17,13,6.10
2012,04,12,17,14,6.10
2012,04,12,17,15,6.10
2012,04,12,17,16,6.10
2012,04,12,17,17,6.10
2012,04,12,17,18,6.10
2012,04,12,17,19,6.20
2012,04,12,17,20,6.20
2012,04,12,17,21,6.20
2012,04,12,17,22,6.10
2012,04,12,17,23,6.10
2012,04,12,17,24,6.10
2012,04,12,17,25,6.10
2012,04,12,17,26,6.20
2012,04,12,17,27,6.20
2012,04,12,17,28,6.20
2012,04,12,17,29,6.20
2012,04,12,17,30,6.20
2012,04,12,17,31,6.20
2012,04,12,17,32,6.30
2012,04,12,17,33,6.30
2012,04,12,17,34,6.40
2012,04,12,17,35,6.40
2012,04,12,17,36,6.40
2012,04,12,17,37,6.50
2012,04,12,17,38,6.50
2012,04,12,17,39,6.60
2012,04,12,17,40,6.60
2012,04,12,17,41,6.60
2012,04,12,17,42,6.70
2012,04,12,17,43,6.60
2012,04,12,17,44,6.70
2012,04,12,17,45,6.60
2012,04,12,17,46,6.70
2012,04,12,17,47,6.70
2012,04,12,17,48,6.70
2012,04,12,17,49,6.70
2012,04,12,17,50,6.70
2012,04,12,17,51,6.70
2012,04,12,17,52,6.70
2012,04,12,17,53,6.70
2012,04,12,17,54,6.70
2012,04,12,17,55,6.70